Aérodrome :
LOGIN :

S'inscrire | Disclaimer

   EN    FR    IT 

 










Légende :    VFR   VFR Marginal   IFR   IFR Intensif   IFR Très Intensif
Visi : 
Plafond : 
>= 8 km
>= 3000ft
5 à 8 km
1000 à 3000 ft
1500m à 5 km
500 à 1000 ft
800 à 1500m
200 à 500 ft
< 800m
< 200 ft
Symboles :   Orages  Brouillard  Fortes neiges  Fortes précipitations  Vent > 20 kt
SIGMETs :   Divers  Orages  Givrage  Turbulence  Onde Orograph.  Cendres Volcan.






- Altitude de l'aérodrome : 386 ft
- Code IATA : QOE


ETNN - Nörvenich Airforce Base

DERNIER METAR :
  • 232220Z 15008KT 9999 SCT090 BKN140 19/12 Q1001 BLU

METARs EXPIRÉS :
  • 232120Z 13007KT 9999 BKN150 19/12 Q1001 BLU
  • 232020Z 14007KT 9999 FEW110 SCT180 BKN240 18/12 Q1002 BLU+

TAF TAF ETNN
Valide du 23 à 20h jusqu'au 24 à 05h UTC


231945Z 2320/2405 19007KT 9999 NSW SCT120 BKN240
BECMG 2321/2323 22012KT 7000 -RA SCT070 BKN090
TEMPO 2323/2405 25015KT 4000 SHRA SCT025 BKN040
PROB30 2323/2403 27015G25KT 2000 TSRA BKN020 BKN030CB BY ETGL



MET'MAP, la Météo Aéronautique d'un coup d'oeil ! - Copyright ORBIFLY Décembre 2007 - Disclaimer

ORBIFLY MET'MAP TEAM :

Programmation & Développement : Alexandra Zaïnal
Sur une idée originale de : Baudouin d'Aumeries
Assistance à la programmation : Marc-Olivier Méhu
Soutien technique & logistique : Manuel Goepfert

Contact : metmap@orbifly.com




SOURCES & CREDITS :

   NOAA